Regional Weather Roundup
Issued by NWS

Home | Current Version | Previous Version | Text Only | Print | Product List | Glossary Off
Versions: 1 2 3 4 5 6 7 8 9 10 11 12 13 14 15 16 17 18 19 20 21 22 23 24 25 26 27 28 29 30 31 32 33 34 35 36 37 38 39 40 41 42 43 44 45 46 47 48 49 50

000
ASUS43 KDMX 240206
RWRIA

WEATHER ROUNDUP FOR IOWA
NATIONAL WEATHER SERVICE DES MOINES IA
900 PM CDT FRI JUN 23 2017

NOTE: "FAIR" INDICATES FEW OR NO CLOUDS BELOW 12,000 FEET WITH NO
SIGNIFICANT WEATHER AND/OR OBSTRUCTIONS TO VISIBILITY.

* - THESE STATIONS ARE NOT NWS STATIONS...THUS NOT UNDER NWS
QUALITY CONTROL.  THEY ALSO DO NOT REPORT WEATHER SUCH
AS PRECIPITATION OR FOG.

IAZ001>003-012>014-020>022-031>034-043>046-240300-
   NORTHWEST IOWA

CITY           SKY/WX    TMP DP  RH WIND       PRES   REMARKS
CARROLL *      MOCLDY    68  46  45 NW13G22   30.01R
CHEROKEE *     CLEAR     63  47  56 NW5       30.01S
DENISON *      CLEAR     64  48  55 NW6       30.04R
LE MARS *      CLEAR     64  43  45 NW12G20   30.04R
ORANGE CITY *  CLEAR     63  46  55 NW9       30.03R
SHELDON *      CLEAR     61  46  59 NW7       30.01R
SIOUX CITY     CLEAR     66  44  45 NW12      30.02R
SPENCER        PTCLDY    63  49  60 NW10      30.00R
STORM LAKE *   CLEAR     63  46  55 NW8       30.02R
$$

IAZ055>058-069>071-079>083-090>094-240300-
   SOUTHWEST IOWA

CITY           SKY/WX    TMP DP  RH WIND       PRES   REMARKS
ATLANTIC *     CLOUDY    68  52  56 NW7       30.02R
AUDUBON *      MOCLDY    66  52  59 NW7       30.03R
CLARINDA *     PTCLDY    68  54  60 NW6       30.04R
COUNCIL BLFS * CLOUDY    68  50  52 NW7       30.04R
CRESTON *      CLEAR     64  52  63 NW6       30.02R
HARLAN  *      CLOUDY    66  50  55 NW7       30.06R
LAMONI         CLEAR     65  52  62 NW7       30.00R
RED OAK *      PTCLDY    66  54  63 NW6       30.03R
SHENANDOAH *   CLEAR     68  54  60 NW3       30.04R
$$

IAZ047>049-059>061-072>074-084-240300-
   CENTRAL IOWA

CITY           SKY/WX    TMP DP  RH WIND       PRES   REMARKS
AMES           PTCLDY    67  51  56 W10       29.97R
ANKENY *       CLEAR     66  50  55 NW9       29.98R
BOONE *        MOCLDY    66  48  52 NW15      29.98R
CHARITON *     CLEAR     66  52  59 NW8       29.98R
DES MOINES     PTCLDY    67  51  56 NW6       29.97R
GRINNELL*      CLEAR     65  53  65 NW7       29.96R
KNOXVILLE *    CLEAR     64  54  68 NW7       29.96R
MARSHALLTOWN   PTCLDY    64  54  69 W8        29.93R
NEWTON *       CLEAR     66  52  59 NW8       29.96R
PELLA *        CLEAR     67  52  58 NW9       29.97R
PERRY *        CLOUDY    67  49  51 NW5       29.99R
$$

IAZ004>006-015-016-023>025-035-036-240300-
   NORTH CENTRAL IOWA

CITY           SKY/WX    TMP DP  RH WIND       PRES   REMARKS
ALGONA *       PTCLDY    64  50  59 NW10G21   29.98R
CLARION *        N/A     64  54  68 NW13      29.96R
ESTHERVILLE    CLEAR     60  50  69 NW10      29.99R
FORT DODGE *   PTCLDY    64  48  55 NW10G17   29.99R
MASON CITY     PTCLDY    64  50  60 NW18G24   29.95R
FOREST CITY *    N/A     63  43  48 NW12G17   29.95R
WEBSTER CITY * PTCLDY    64  50  59 NW12      29.95R
IOWA FALLS *     N/A     64  54  70 W7        29.96R
$$

IAZ007>011-017>019-026>030-037>042-050>054-066-240300-
   NORTHEAST IOWA

CITY           SKY/WX    TMP DP  RH WIND       PRES   REMARKS
CEDAR RAPIDS   CLEAR     62  57  83 W8        29.90R
CHARLES CITY * CLEAR     64  55  72 NW12      29.92R
CLINTON *      CLEAR     66  57  72 NW10      29.87R
DECORAH *      CLEAR     64  54  68 VRB6      29.88R
DUBUQUE        PTCLDY    65  55  70 W8        29.87R
MONTICELLO *   CLEAR     66  55  68 W8        29.89R
OELWEIN *      CLEAR     64  54  68 NW12      29.91R
WATERLOO       MOCLDY    66  54  65 W5        29.90R
$$

IAZ064-065-067-068-078-240300-
   EAST CENTRAL IOWA

CITY           SKY/WX    TMP DP  RH WIND       PRES   REMARKS
DAVENPORT      CLEAR     66  57  72 NW9       29.88R
IOWA CITY      CLEAR     70  54  56 NW10      29.92R
MT. PLEASANT * CLEAR     68  52  56 W9        29.92R
MUSCATINE *    CLEAR     70  54  56 NW10      29.90R
QUAD CITIES    CLEAR     71  55  56 NW14      29.87R
$$

IAZ062-063-075>077-085>089-095>099-240300-
   SOUTHEAST IOWA

CITY           SKY/WX    TMP DP  RH WIND       PRES   REMARKS
BURLINGTON     CLEAR     69  55  60 NW6       29.91R
FAIRFIELD *    CLEAR     68  52  56 NW7       29.93R
FORT MADISON * CLEAR     70  55  60 NW3       29.93R
KEOKUK *       CLEAR     68  54  60 NW7       29.92R
OSKALOOSA *      N/A     65  52  62 NW7       29.96R
CENTERVILLE *    N/A     66  55  68 CALM      29.99R
OTTUMWA        PTCLDY    66  52  60 NW7       29.94R
WASHINGTON *   CLEAR     68  55  64 NW8       29.93R
$$

ABBREVIATIONS USED IN REMARKS
   TC - TEMPERATURES IN CELSIUS
  WCI - WIND CHILL INDEX
   HX - HEAT INDEX
  VSB - VISIBILITY
$$





USA.gov is the U.S. government's official web portal to all federal, state and local government web resources and services.